www.pogodaiklimat.ru

Погода и климат >> Архив погоды >> Индия >> Harnai


ПОГОДА в Harnai

  • Прогноз погоды в Harnai
  • Монитор погоды в Harnai
  • Климат города

АРХИВ ПОГОДЫ в Harnai

Время (UTC), дата Ветер
(напр.,м/с)
 
Видим.   Явления Облачность Т
(С)
Тd
(С)
f
(%)
Тe
(С)
Тes
(С)
Комфортность P
(гПа)
Po
(гПа)
Тmin
(С)
Tmax
(С)
R
(мм)
R24
(мм)
S
(см)
06 19.05 СЗ 1 4000 м мгла {туман} 4/4 600 м
[Sc diur, vesp]
+31.2 -20.1 3 +26 +41 жарко 1012.9 1013.0
09 19.05 СЗ 1 4000 м мгла {туман} 4/4 600 м
[Sc diur, vesp]
+34.2 0.0 11 +31 +43 жарко 1011.0 1011.0
12 19.05 З 2 4000 м мгла {туман} 4/4 600 м
[Sc diur, vesp]
+32.0 0.0 13 +29 +31 жарко 1009.5 1010.0 +35.1
03 20.05 СЗ 2 4000 м мгла {туман} 4/4 600 м
[Sc diur, vesp]
+30.0 -20.1 3 +25 +29 комфорт 1011.5 1012.0 +27.0
06 20.05 З 1 4000 м мгла {туман} 3/3 600 м
[Sc diur, vesp]
+32.0 0.0 13 +29 +46 жарко 1011.2 1011.0
09 20.05 З 2 4000 м мгла {туман} 1/1 600 м
[Sc diur, vesp]
+32.4 -20.1 3 +28 +45 жарко 1008.4 1008.0
12 20.05 СЗ 3 4000 м мгла {туман} 1/1 600 м
[Sc diur, vesp]
+31.0 -20.1 3 +26 +28 жарко 1006.8 1007.0 +33.2
03 21.05 С 3 4000 м мгла {туман} 5/4 600 м
[Sc diur, vesp Ac trans]
+30.0 0.0 14 +27 +30 жарко 1009.5 1010.0 +27.3
06 21.05 С 2 4000 м мгла {туман} 4/4 600 м
[Sc diur, vesp]
+32.6 -20.1 3 +28 +41 жарко 1009.9 1010.0
09 21.05 СЗ 2 4000 м мгла {туман} 6/4 600 м
[Sc diur, vesp Ac trans Ci fib]
+32.6 -20.1 3 +28 +37 жарко 1008.1 1008.0
12 21.05 С 2 4000 м мгла {туман} 4/1 600 м
[Sc diur, vesp Ci fib]
+31.8 -20.1 3 +27 +30 жарко 1007.2 1007.0 +33.9
03 22.05 С 4 4000 м мгла {туман} 4/1 600 м
[Cu hum Ac trans Ci fib]
+30.0 -20.1 3 +25 +28 комфорт 1009.4 1009.0 +26.7
06 22.05 С 9 4000 м мгла {туман} 5/1 600 м
[Sc diur, vesp Ac trans Ci fib]
+30.6 -0.1 14 +28 +29 жарко 1009.8 1010.0
09 22.05 СЗ 5 4000 м мгла {туман} 3/0 1500 м
[Ac trans]
+31.6 -20.1 3 +27 +35 жарко 1008.4 1008.0
12 22.05 СЗ 4 4000 м мгла {туман} 3/0 1500 м
[Ac trans]
+30.6 -20.1 3 +26 +27 жарко 1006.9 1007.0 +32.5
03 23.05 СЗ 4 4000 м мгла {туман} 4/3 600 м
[Sc diur, vesp Ac trans]
+30.0 -20.1 3 +25 +28 комфорт 1010.4 1010.0 +28.0
06 23.05 З 4 4000 м мгла {туман} 4/3 600 м
[Sc diur, vesp Ac trans]
+31.6 -20.1 3 +27 +35 жарко 1010.8 1011.0
09 23.05 С 8 4000 м {морось, туман} 1/1 600 м
[Cu hum]
+31.6 -0.1 13 +28 +31 жарко 1007.1 1007.0
12 23.05 С 8 4000 м мгла {туман} 5/4 600 м
[Sc diur, vesp Ci fib]
+30.6 -0.1 14 +28 +28 жарко 1006.0 1006.0 +31.7
03 24.05 СЗ 1 4000 м мгла {туман} 4/3 600 м
[Sc diur, vesp Ac trans]
+30.0 -20.1 3 +25 +30 комфорт 1010.2 1010.0 +27.0
06 24.05 С 1 4000 м мгла {туман} 5/4 600 м
[Sc diur, vesp Ac trans]
+31.0 -20.1 3 +26 +39 жарко 1010.6 1011.0
09 24.05 штиль 0 4000 м мгла {туман} 4/3 600 м
[Sc diur, vesp Ac trans]
+32.0 -20.1 3 +27 +42 жарко 1006.9 1007.0
12 24.05 СЗ 3 4000 м мгла {туман} 5/4 600 м
[Sc diur, vesp Ac trans]
+31.6 -20.1 3 +27 +28 жарко 1006.3 1006.0 +35.0
03 25.05 С 1 4000 м мгла 8/5 600 м
[Sc diur, vesp Ac trans]
+29.8 -20.1 3 +25 +27 комфорт 1008.8 1009.0 +27.0
06 25.05 штиль 0 4000 м мгла 5/5 600 м
[Sc diur, vesp]
+31.8 -20.1 3 +27 +41 жарко 1009.2 1009.0
09 25.05 штиль 0 4000 м мгла 5/5 600 м
[Sc diur, vesp]
+32.4 -20.1 3 +28 +40 жарко 1005.4 1005.0
12 25.05 С 1 4000 м мгла {туман} 4/4 600 м
[Sc diur, vesp]
+31.6 -20.1 3 +27 +29 жарко 1005.9 1006.0 +32.9
03 26.05 С 2 4000 м мгла {туман} 6/5 600 м
[Sc diur, vesp Ac trans]
+30.6 -20.1 3 +26 +29 жарко 1008.6 1009.0 +27.3

 

Местоположение метеостанции Harnai (Maharashtra, Индия): широта 17.82 долгота 73.10 высота над уровнем моря 20 м.

В архиве по умолчанию представлена погода в Harnai за последнюю неделю. Архивные данные за месяц целиком и за предыдущие месяцы, начиная с января 2011 года, Вы можете получить, выбрав интересующий диапазон дат из раскрывающегося списка и нажав кнопку "Ввод!".

Внимание! Время в таблицах - всемирное. Для получения местного времени необходимо прибавить поправку, которая в Harnai равна 5.5 ч.

Смотрите также архив погоды в соседних городах и на ближайших метеорологических станциях:

Погода в Mahabaleshwar (Maharashtra, Индия) (62 км)
Погода в Bhira (Maharashtra, Индия) (77 км)
Погода в Alibag (Maharashtra, Индия) (93 км)
Погода в Ratnagiri (Maharashtra, Индия) (97 км)
Погода в Satara (Maharashtra, Индия) (106 км)
Погода в Pune (Maharashtra, Индия) (112 км)
Погода в Mumbai Colaba (Maharashtra, Индия) (124 км)
Погода в Mumbai (Maharashtra, Индия) (147 км)
Погода в Kolhapur (Maharashtra, Индия) (173 км)
Погода в Sangli (Maharashtra, Индия) (192 км)

Пояснения к столбцам:

Ветер - указаны скорость ветра в м/с - средняя за 10 мин, порывы в срок и между сроками (в фигурных скобках) и направление, откуда дует ветер: С - северный, СВ - северо-восточный, В - восточный, ЮВ - юго-восточный, Ю - южный, ЮЗ - юго-западный, З - западный, СЗ - северо-западный.
Видимость - горизонтальная дальность видимости в метрах или километрах. При видимости от 1 до 10 км при отсутствии осадков обычно наблюдается дымка, при ухудшении видимости до 1 км и менее - туман. В сухую погоду видимость может ухудшаться дымом, пылью или мглою.
Явления - указаны атмосферные явления, наблюдавшиеся в срок или в последний час перед сроком; фигурными скобками обозначены явления, наблюдавшиеся между сроками (за 1-3 часа до срока); квадратными скобками обозначены град или гололедные отложения с указанием их диаметра в мм.
Облачность - указаны через наклонную черту общая и нижняя облачность в баллах и высота нижней границы облаков в метрах; квадратными скобками обозначены формы облаков: Ci - перистые, Cs - перисто-слоистые, Cc - перисто-кучевые, Ac - высококучевые, As - высокослоистые, Sc - слоисто-кучевые, Ns - слоисто-дождевые, Cu - кучевые, Cb - кучево-дождевые. Подробнее классификацию облаков см. в Атласе облаков (PDF).
T - Температура воздуха - температура, измеренная на высоте 2 м над землей.
Td - Температура точки росы - температура, при понижении до которой содержащийся в воздухе водяной пар достигнет насыщения.
f - Относительная влажность воздуха - влажноcть воздуха, измеренная на высоте 2 м над землей.
Te - Эффективная температура - температура, которую ощущает одетый по сезону человек в тени. Характеристика душности погоды. При расчете учитывается влияние влажности воздуха и скорости ветра на теплоощущения человека.
Tes - Эффективная температура на солнце - температура, которую ощущает человек, с поправкой на солнечный нагрев. Характеристика знойности погоды. Зависит от высоты солнца над горизонтом, облачности и скорости ветра. Ночью, в пасмурную погоду, а также при ветре 12 м/с и более поправка равна нулю.
P - Атмосферное давление - приведенное к уровню моря атмосферное давление.
Po - Атмосферное давление - измеренное на уровне метеостанции атмосферное давление.
Tmin - Минимальная температура - минимум температуры воздуха на высоте 2 м над землей.
Tmax - Максимальная температура - максимум температуры воздуха на высоте 2 м над землей.
R - Количество осадков - Количество выпавших осадков за период времени, мм. При наведении курсора мыши на число - период времени, за который выпало указанное количество осадков.
R24 - Количество осадков - Количество выпавших осадков за 24 часа, мм.
S - Снежный покров - Высота снежного покрова, см. При наведении курсора мыши на число - состояние снежного покрова и степень покрытия местности в баллах.